軌道要素
Epoch 2014 July 2.0 TT = JDT 2456840.5
T 2014 June 29.79887 TT MPCW
q 6.0191457 (2000.0) P Q
z -0.0005252 Peri. 315.44977 -0.50663101 -0.57756548
+/-0.0000033 Node 219.98387 -0.18526164 -0.65217655
e 1.0031615 Incl. 95.01530 -0.84202325 +0.49100292
From 54 observations 2015 May 14-2016 June 7, mean residual 0".4.
|